Tracking 28052 objects as of 24-Sep-2023
HD Live streaming from Space Station
objects crossing your sky now

STARLINK-30253

Track STARLINK-30253 now!
10-day predictions
STARLINK-30253 is classified as:


NORAD ID: 57525
Int'l Code: 2023-115E
Perigee: 559.2 km
Apogee: 561.2 km
Inclination: 43.0 °
Period: 95.7 minutes
Semi major axis: 6931 km
RCS: Unknown
Launch date: August 8, 2023
Source: United States (US)
Launch site: AIR FORCE WESTERN TEST RANGE (AFWTR)
Your satellite tracking list
Your tracking list is empty




NASA's NSSDC Master Catalog

Two Line Element Set (TLE):
1 57525U 23115E   23266.71504531 -.00000294  00000-0 -61108-5 0  9999
2 57525  43.0005 204.2445 0001384 243.3957 116.6744 15.04492106  8186
Source of the keplerian elements: AFSPC